Погода в Селе

Россия / Костромская область     59°12′47″N   43°29′29″E
темп.,
°C
ветер,
м/с
пор.,
м/с
влажн.,
%
обл.,
%
осадки,
мм/ч
давл.,
гПа
погр.,
м
9 мая, вс
вс900:00+9вюв51366100 0.0 1007515
03:00+9юв51387100 0.4 1005639
06:00+10ююв51292100 0.4 1004739
09:00+10ююв41194100 1.6 1005717
12:00+11ю41096100 3.3 1006765
15:00+10ю41093100 5.8 1009651
18:00+6ссз5995100 2.0 1011453
21:00+5сз41094100 4.2 1014667
10 мая, пн
пн1000:00+4ссз4995100 2.1 1017662
03:00+3сз41092100 2.5 1020599
06:00+4ссз4118799 0.0 1023591
09:00+8с47604 0.0 10251149
12:00+12ссз35415 0.0 10261674
15:00+13ссз24375 0.0 10271810
18:00+13сз125095 0.0 1028262
21:00+7зюз11647 0.0 103010
11 мая, вт
вт1100:00+5юз1171100 0.0 103110
03:00+5юз227527 0.0 103217
06:00+7ююз246944 0.0 1032120
09:00+13ююз344944 0.0 1032611
12:00+16юз344525 0.0 10321035
15:00+18юз34455 0.0 10311203
18:00+17юз125856 0.0 1031125
21:00+12ююз227595 0.0 103113
12 мая, ср
ср1200:00+10ююз228111 0.0 103226
03:00+8юз118325 0.0 103210
06:00+11юв11720 0.0 103281
09:00+17ююв23520 0.0 1032597
12:00+20ююв34435 0.0 10311135
15:00+21ююв34415 0.0 10301394
18:00+20ююв24535 0.0 1029154
21:00+13ююв22700 0.0 102910
13 мая, чт
чт1300:00+11ююв11740 0.0 103010
03:00+9юв11782 0.0 103010
06:00+12вюв23714 0.0 1029108
09:00+18юв24520 0.0 1028568
12:00+22юв344111 0.0 10271332
15:00+23юв343456 0.0 10251700
18:00+20юв2452100 0.0 1024122
21:00+15юв277095 0.0 1024133